Location: Ernsee
(50.8780°N, 12.0389°E)
Time: 11:34:55
(UTC+00:00)

SL-4 R/B - Pass Details

Date: 20 January 2020
Orbit: 428 x 666 km, 51.6° (Epoch: 18 February)

Event Time Altitude Azimuth Distance (km) Brightness Sun altitude
Exits shadow 06:15:09 - 264° (W) 1,809 4.1 -7.7°
Reaches altitude 10° 06:16:11 10° 251° (WSW) 1,572 3.9 -7.5°
Maximum altitude 06:17:43 12° 224° (SW) 1,411 3.9 -7.3°
Drops below altitude 10° 06:19:14 10° 198° (SSW) 1,540 4.4 -7.1°
Sets 06:22:17 0° 167° (SSE) 2,384 5.9 -6.7°
